owner,sensor,date,latitude,longitude,air_pressure(mBar),qcFlag 
COMPS,ioos:station:USF.COMPS:C13:1,2017-04-01T00:05:00Z,26.0630,-83.0730,1009.98,1111122 
COMPS,ioos:station:USF.COMPS:C13:1,2017-04-01T00:35:00Z,26.0630,-83.0730,1010.41,1111122 
COMPS,ioos:station:USF.COMPS:C13:1,2017-04-01T01:05:00Z,26.0630,-83.0730,1010.72,1111122 
COMPS,ioos:station:USF.COMPS:C13:1,2017-04-01T01:35:00Z,26.0630,-83.0730,1010.71,1111122 
COMPS,ioos:station:USF.COMPS:C13:1,2017-04-01T02:05:00Z,26.0630,-83.0730,1011.07,1111122 
COMPS,ioos:station:USF.COMPS:C13:1,2017-04-01T02:35:00Z,26.0630,-83.0730,1011.61,1111122 
COMPS,ioos:station:USF.COMPS:C13:1,2017-04-01T03:05:00Z,26.0630,-83.0730,1011.7,1111122 
COMPS,ioos:station:USF.COMPS:C13:1,2017-04-01T03:35:00Z,26.0630,-83.0730,1011.99,1111122 
COMPS,ioos:station:USF.COMPS:C13:1,2017-04-01T04:05:00Z,26.0630,-83.0730,1012.03,1111122 
COMPS,ioos:station:USF.COMPS:C13:1,2017-04-01T04:35:00Z,26.0630,-83.0730,1011.75,1111122 
COMPS,ioos:station:USF.COMPS:C13:1,2017-04-01T05:05:00Z,26.0630,-83.0730,1011.85,1111122 
COMPS,ioos:station:USF.COMPS:C13:1,2017-04-01T05:35:00Z,26.0630,-83.0730,1012.0,1111122 
COMPS,ioos:station:USF.COMPS:C13:1,2017-04-01T06:05:00Z,26.0630,-83.0730,1011.97,1111122 
COMPS,ioos:station:USF.COMPS:C13:1,2017-04-01T06:35:00Z,26.0630,-83.0730,1011.98,1111122 
COMPS,ioos:station:USF.COMPS:C13:1,2017-04-01T07:05:00Z,26.0630,-83.0730,1011.92,1111122 
COMPS,ioos:station:USF.COMPS:C13:1,2017-04-01T07:35:00Z,26.0630,-83.0730,1011.98,1111122 
COMPS,ioos:station:USF.COMPS:C13:1,2017-04-01T08:05:00Z,26.0630,-83.0730,1011.89,1111122 
COMPS,ioos:station:USF.COMPS:C13:1,2017-04-01T08:35:00Z,26.0630,-83.0730,1011.91,1111122 
COMPS,ioos:station:USF.COMPS:C13:1,2017-04-01T09:05:00Z,26.0630,-83.0730,1011.98,1111122 
COMPS,ioos:station:USF.COMPS:C13:1,2017-04-01T09:35:00Z,26.0630,-83.0730,1012.13,1111122 
COMPS,ioos:station:USF.COMPS:C13:1,2017-04-01T10:05:00Z,26.0630,-83.0730,1012.35,1111122 
COMPS,ioos:station:USF.COMPS:C13:1,2017-04-01T10:35:00Z,26.0630,-83.0730,1012.57,1111122 
COMPS,ioos:station:USF.COMPS:C13:1,2017-04-01T11:05:00Z,26.0630,-83.0730,1013.22,1111122 
COMPS,ioos:station:USF.COMPS:C13:1,2017-04-01T11:35:00Z,26.0630,-83.0730,1013.84,1111122 
COMPS,ioos:station:USF.COMPS:C13:1,2017-04-01T12:05:00Z,26.0630,-83.0730,1014.2,1111122 
COMPS,ioos:station:USF.COMPS:C13:1,2017-04-01T12:35:00Z,26.0630,-83.0730,1014.22,1111122 
COMPS,ioos:station:USF.COMPS:C13:1,2017-04-01T16:05:00Z,26.0630,-83.0730,1015.7,1111122 
COMPS,ioos:station:USF.COMPS:C13:1,2017-04-01T16:35:00Z,26.0630,-83.0730,1015.4,1111122 
COMPS,ioos:station:USF.COMPS:C13:1,2017-04-01T20:05:00Z,26.0630,-83.0730,1013.88,1111122 
COMPS,ioos:station:USF.COMPS:C13:1,2017-04-01T20:35:00Z,26.0630,-83.0730,1013.83,1111122 
COMPS,ioos:station:USF.COMPS:C13:1,2017-04-01T21:05:00Z,26.0630,-83.0730,1013.47,1111122 
COMPS,ioos:station:USF.COMPS:C13:1,2017-04-01T21:35:00Z,26.0630,-83.0730,1013.47,1111122 
COMPS,ioos:station:USF.COMPS:C13:1,2017-04-01T22:05:00Z,26.0630,-83.0730,1013.74,1111122 
COMPS,ioos:station:USF.COMPS:C13:1,2017-04-01T22:35:00Z,26.0630,-83.0730,1013.89,1111122 
COMPS,ioos:station:USF.COMPS:C13:1,2017-04-01T23:05:00Z,26.0630,-83.0730,1013.89,1111122 
COMPS,ioos:station:USF.COMPS:C13:1,2017-04-01T23:35:00Z,26.0630,-83.0730,1014.16,1111122 
COMPS,ioos:station:USF.COMPS:C13:1,2017-04-02T00:05:00Z,26.0630,-83.0730,1014.32,1111122 
COMPS,ioos:station:USF.COMPS:C13:1,2017-04-02T00:35:00Z,26.0630,-83.0730,1014.31,1111122 
COMPS,ioos:station:USF.COMPS:C13:1,2017-04-02T01:05:00Z,26.0630,-83.0730,1014.56,1111122 
COMPS,ioos:station:USF.COMPS:C13:1,2017-04-02T01:35:00Z,26.0630,-83.0730,1014.85,1111122 
COMPS,ioos:station:USF.COMPS:C13:1,2017-04-02T02:05:00Z,26.0630,-83.0730,1015.24,1111122 
COMPS,ioos:station:USF.COMPS:C13:1,2017-04-02T02:35:00Z,26.0630,-83.0730,1015.72,1111122 
COMPS,ioos:station:USF.COMPS:C13:1,2017-04-02T03:05:00Z,26.0630,-83.0730,1015.71,1111122 
COMPS,ioos:station:USF.COMPS:C13:1,2017-04-02T03:35:00Z,26.0630,-83.0730,1015.72,1111122 
COMPS,ioos:station:USF.COMPS:C13:1,2017-04-02T04:05:00Z,26.0630,-83.0730,1015.76,1111122 
COMPS,ioos:station:USF.COMPS:C13:1,2017-04-02T04:35:00Z,26.0630,-83.0730,1015.7,1111122 
COMPS,ioos:station:USF.COMPS:C13:1,2017-04-02T05:05:00Z,26.0630,-83.0730,1015.4,1111122 
COMPS,ioos:station:USF.COMPS:C13:1,2017-04-02T05:35:00Z,26.0630,-83.0730,1015.38,1111122 
COMPS,ioos:station:USF.COMPS:C13:1,2017-04-02T06:05:00Z,26.0630,-83.0730,1015.17,1111122 
COMPS,ioos:station:USF.COMPS:C13:1,2017-04-02T06:35:00Z,26.0630,-83.0730,1015.04,1111122 
COMPS,ioos:station:USF.COMPS:C13:1,2017-04-02T07:05:00Z,26.0630,-83.0730,1014.63,1111122 
COMPS,ioos:station:USF.COMPS:C13:1,2017-04-02T07:35:00Z,26.0630,-83.0730,1014.3,1111122 
COMPS,ioos:station:USF.COMPS:C13:1,2017-04-02T08:05:00Z,26.0630,-83.0730,1014.27,1111122 
COMPS,ioos:station:USF.COMPS:C13:1,2017-04-02T08:35:00Z,26.0630,-83.0730,1014.01,1111122 
COMPS,ioos:station:USF.COMPS:C13:1,2017-04-02T09:05:00Z,26.0630,-83.0730,1013.99,1111122 
COMPS,ioos:station:USF.COMPS:C13:1,2017-04-02T09:35:00Z,26.0630,-83.0730,1013.85,1111122 
COMPS,ioos:station:USF.COMPS:C13:1,2017-04-02T10:05:00Z,26.0630,-83.0730,1013.71,1111122 
COMPS,ioos:station:USF.COMPS:C13:1,2017-04-02T10:35:00Z,26.0630,-83.0730,1013.85,1111122 
COMPS,ioos:station:USF.COMPS:C13:1,2017-04-02T11:05:00Z,26.0630,-83.0730,1014.29,1111122 
COMPS,ioos:station:USF.COMPS:C13:1,2017-04-02T11:35:00Z,26.0630,-83.0730,1014.43,1111122 
COMPS,ioos:station:USF.COMPS:C13:1,2017-04-02T12:05:00Z,26.0630,-83.0730,1014.9,1111122 
COMPS,ioos:station:USF.COMPS:C13:1,2017-04-02T12:35:00Z,26.0630,-83.0730,1015.1,1111122 
COMPS,ioos:station:USF.COMPS:C13:1,2017-04-02T13:05:00Z,26.0630,-83.0730,1015.33,1111122 
COMPS,ioos:station:USF.COMPS:C13:1,2017-04-02T13:35:00Z,26.0630,-83.0730,1015.47,1111122 
COMPS,ioos:station:USF.COMPS:C13:1,2017-04-02T14:05:00Z,26.0630,-83.0730,1015.43,1111122 
COMPS,ioos:station:USF.COMPS:C13:1,2017-04-02T14:35:00Z,26.0630,-83.0730,1015.45,1111122 
COMPS,ioos:station:USF.COMPS:C13:1,2017-04-02T15:05:00Z,26.0630,-83.0730,1015.61,1111122 
COMPS,ioos:station:USF.COMPS:C13:1,2017-04-02T15:35:00Z,26.0630,-83.0730,1015.32,1111122 
COMPS,ioos:station:USF.COMPS:C13:1,2017-04-02T22:05:00Z,26.0630,-83.0730,1013.22,1111122 
COMPS,ioos:station:USF.COMPS:C13:1,2017-04-02T22:35:00Z,26.0630,-83.0730,1013.18,1111122 
COMPS,ioos:station:USF.COMPS:C13:1,2017-04-02T23:05:00Z,26.0630,-83.0730,1013.18,1111122 
COMPS,ioos:station:USF.COMPS:C13:1,2017-04-02T23:35:00Z,26.0630,-83.0730,1012.98,1111122 
COMPS,ioos:station:USF.COMPS:C13:1,2017-04-03T00:05:00Z,26.0630,-83.0730,1012.95,1111122 
COMPS,ioos:station:USF.COMPS:C13:1,2017-04-03T00:35:00Z,26.0630,-83.0730,1012.94,1111122 
COMPS,ioos:station:USF.COMPS:C13:1,2017-04-03T02:05:00Z,26.0630,-83.0730,1013.26,1111122 
COMPS,ioos:station:USF.COMPS:C13:1,2017-04-03T02:35:00Z,26.0630,-83.0730,1013.4,1111122 
COMPS,ioos:station:USF.COMPS:C13:1,2017-04-03T03:05:00Z,26.0630,-83.0730,1013.38,1111122 
COMPS,ioos:station:USF.COMPS:C13:1,2017-04-03T03:35:00Z,26.0630,-83.0730,1013.42,1111122 
COMPS,ioos:station:USF.COMPS:C13:1,2017-04-03T04:05:00Z,26.0630,-83.0730,1013.58,1111122 
COMPS,ioos:station:USF.COMPS:C13:1,2017-04-03T04:35:00Z,26.0630,-83.0730,1013.25,1111122 
COMPS,ioos:station:USF.COMPS:C13:1,2017-04-03T05:05:00Z,26.0630,-83.0730,1013.18,1111122 
COMPS,ioos:station:USF.COMPS:C13:1,2017-04-03T05:35:00Z,26.0630,-83.0730,1012.98,1111122 
COMPS,ioos:station:USF.COMPS:C13:1,2017-04-03T06:05:00Z,26.0630,-83.0730,1012.54,1111122 
COMPS,ioos:station:USF.COMPS:C13:1,2017-04-03T06:35:00Z,26.0630,-83.0730,1012.44,1111122 
COMPS,ioos:station:USF.COMPS:C13:1,2017-04-03T07:05:00Z,26.0630,-83.0730,1012.44,1111122 
COMPS,ioos:station:USF.COMPS:C13:1,2017-04-03T07:35:00Z,26.0630,-83.0730,1012.13,1111122 
COMPS,ioos:station:USF.COMPS:C13:1,2017-04-03T08:05:00Z,26.0630,-83.0730,1012.01,1111122 
COMPS,ioos:station:USF.COMPS:C13:1,2017-04-03T08:35:00Z,26.0630,-83.0730,1011.63,1111122 
COMPS,ioos:station:USF.COMPS:C13:1,2017-04-03T09:05:00Z,26.0630,-83.0730,1011.37,1111122 
COMPS,ioos:station:USF.COMPS:C13:1,2017-04-03T09:35:00Z,26.0630,-83.0730,1011.3,1111122 
COMPS,ioos:station:USF.COMPS:C13:1,2017-04-03T10:05:00Z,26.0630,-83.0730,1011.62,1111122 
COMPS,ioos:station:USF.COMPS:C13:1,2017-04-03T10:35:00Z,26.0630,-83.0730,1011.51,1111122 
COMPS,ioos:station:USF.COMPS:C13:1,2017-04-03T11:05:00Z,26.0630,-83.0730,1011.6,1111122 
COMPS,ioos:station:USF.COMPS:C13:1,2017-04-03T11:35:00Z,26.0630,-83.0730,1012.03,1111122 
COMPS,ioos:station:USF.COMPS:C13:1,2017-04-03T12:05:00Z,26.0630,-83.0730,1012.1,1111122 
COMPS,ioos:station:USF.COMPS:C13:1,2017-04-03T12:35:00Z,26.0630,-83.0730,1012.23,1111122 
COMPS,ioos:station:USF.COMPS:C13:1,2017-04-03T13:05:00Z,26.0630,-83.0730,1012.57,1111122 
COMPS,ioos:station:USF.COMPS:C13:1,2017-04-03T13:35:00Z,26.0630,-83.0730,1012.43,1111122 
COMPS,ioos:station:USF.COMPS:C13:1,2017-04-03T14:05:00Z,26.0630,-83.0730,1012.46,1111122 
COMPS,ioos:station:USF.COMPS:C13:1,2017-04-03T14:35:00Z,26.0630,-83.0730,1012.5,1111122 
COMPS,ioos:station:USF.COMPS:C13:1,2017-04-03T15:05:00Z,26.0630,-83.0730,1012.4,1111122 
COMPS,ioos:station:USF.COMPS:C13:1,2017-04-03T15:35:00Z,26.0630,-83.0730,1012.31,1111122 
COMPS,ioos:station:USF.COMPS:C13:1,2017-04-03T16:05:00Z,26.0630,-83.0730,1012.26,1111122 
COMPS,ioos:station:USF.COMPS:C13:1,2017-04-03T16:35:00Z,26.0630,-83.0730,1012.66,1111122 
COMPS,ioos:station:USF.COMPS:C13:1,2017-04-03T17:05:00Z,26.0630,-83.0730,1012.46,1111122 
COMPS,ioos:station:USF.COMPS:C13:1,2017-04-03T17:35:00Z,26.0630,-83.0730,1012.01,1111122 
COMPS,ioos:station:USF.COMPS:C13:1,2017-04-03T18:05:00Z,26.0630,-83.0730,1011.83,1111122 
COMPS,ioos:station:USF.COMPS:C13:1,2017-04-03T18:35:00Z,26.0630,-83.0730,1011.67,1111122 
COMPS,ioos:station:USF.COMPS:C13:1,2017-04-03T19:05:00Z,26.0630,-83.0730,1011.83,1111122 
COMPS,ioos:station:USF.COMPS:C13:1,2017-04-03T19:35:00Z,26.0630,-83.0730,1011.56,1111122 
COMPS,ioos:station:USF.COMPS:C13:1,2017-04-03T20:05:00Z,26.0630,-83.0730,1011.56,1111122 
COMPS,ioos:station:USF.COMPS:C13:1,2017-04-03T20:35:00Z,26.0630,-83.0730,1011.28,1111122 
COMPS,ioos:station:USF.COMPS:C13:1,2017-04-03T21:05:00Z,26.0630,-83.0730,1011.27,1111122 
COMPS,ioos:station:USF.COMPS:C13:1,2017-04-03T21:35:00Z,26.0630,-83.0730,1011.03,1111122 
COMPS,ioos:station:USF.COMPS:C13:1,2017-04-03T22:05:00Z,26.0630,-83.0730,1011.01,1111122 
COMPS,ioos:station:USF.COMPS:C13:1,2017-04-03T22:35:00Z,26.0630,-83.0730,1010.84,1111122 
COMPS,ioos:station:USF.COMPS:C13:1,2017-04-03T23:05:00Z,26.0630,-83.0730,1010.68,1111122 
COMPS,ioos:station:USF.COMPS:C13:1,2017-04-03T23:35:00Z,26.0630,-83.0730,1010.67,1111122 
COMPS,ioos:station:USF.COMPS:C13:1,2017-04-04T00:05:00Z,26.0630,-83.0730,1010.67,1111122 
COMPS,ioos:station:USF.COMPS:C13:1,2017-04-04T00:35:00Z,26.0630,-83.0730,1010.4,1111122 
COMPS,ioos:station:USF.COMPS:C13:1,2017-04-04T01:05:00Z,26.0630,-83.0730,1010.57,1111122 
COMPS,ioos:station:USF.COMPS:C13:1,2017-04-04T01:35:00Z,26.0630,-83.0730,1010.32,1111122 
COMPS,ioos:station:USF.COMPS:C13:1,2017-04-04T02:05:00Z,26.0630,-83.0730,1010.55,1111122 
COMPS,ioos:station:USF.COMPS:C13:1,2017-04-04T02:35:00Z,26.0630,-83.0730,1010.7,1111122 
COMPS,ioos:station:USF.COMPS:C13:1,2017-04-04T03:05:00Z,26.0630,-83.0730,1011.1,1111122 
COMPS,ioos:station:USF.COMPS:C13:1,2017-04-04T03:35:00Z,26.0630,-83.0730,1011.47,1111122 
COMPS,ioos:station:USF.COMPS:C13:1,2017-04-04T04:05:00Z,26.0630,-83.0730,1011.35,1111122 
COMPS,ioos:station:USF.COMPS:C13:1,2017-04-04T04:35:00Z,26.0630,-83.0730,1011.39,1111122 
COMPS,ioos:station:USF.COMPS:C13:1,2017-04-04T05:05:00Z,26.0630,-83.0730,1011.47,1111122 
COMPS,ioos:station:USF.COMPS:C13:1,2017-04-04T05:35:00Z,26.0630,-83.0730,1011.49,1111122 
COMPS,ioos:station:USF.COMPS:C13:1,2017-04-04T06:05:00Z,26.0630,-83.0730,1011.1,1111122 
COMPS,ioos:station:USF.COMPS:C13:1,2017-04-04T06:35:00Z,26.0630,-83.0730,1010.94,1111122 
COMPS,ioos:station:USF.COMPS:C13:1,2017-04-04T07:05:00Z,26.0630,-83.0730,1010.47,1111122 
COMPS,ioos:station:USF.COMPS:C13:1,2017-04-04T07:35:00Z,26.0630,-83.0730,1010.51,1111122 
COMPS,ioos:station:USF.COMPS:C13:1,2017-04-04T08:05:00Z,26.0630,-83.0730,1010.42,1111122 
COMPS,ioos:station:USF.COMPS:C13:1,2017-04-04T08:35:00Z,26.0630,-83.0730,1010.19,1111122 
COMPS,ioos:station:USF.COMPS:C13:1,2017-04-04T09:05:00Z,26.0630,-83.0730,1010.08,1111122 
COMPS,ioos:station:USF.COMPS:C13:1,2017-04-04T09:35:00Z,26.0630,-83.0730,1009.83,1111122 
COMPS,ioos:station:USF.COMPS:C13:1,2017-04-04T10:05:00Z,26.0630,-83.0730,1010.05,1111122 
COMPS,ioos:station:USF.COMPS:C13:1,2017-04-04T10:35:00Z,26.0630,-83.0730,1010.24,1111122 
COMPS,ioos:station:USF.COMPS:C13:1,2017-04-04T11:05:00Z,26.0630,-83.0730,1010.35,1111122 
COMPS,ioos:station:USF.COMPS:C13:1,2017-04-04T11:35:00Z,26.0630,-83.0730,1010.57,1111122 
COMPS,ioos:station:USF.COMPS:C13:1,2017-04-04T12:05:00Z,26.0630,-83.0730,1010.77,1111122 
COMPS,ioos:station:USF.COMPS:C13:1,2017-04-04T12:35:00Z,26.0630,-83.0730,1011.1,1111122 
COMPS,ioos:station:USF.COMPS:C13:1,2017-04-04T13:05:00Z,26.0630,-83.0730,1011.36,1111122 
COMPS,ioos:station:USF.COMPS:C13:1,2017-04-04T13:35:00Z,26.0630,-83.0730,1011.55,1111122 
COMPS,ioos:station:USF.COMPS:C13:1,2017-04-04T14:05:00Z,26.0630,-83.0730,1011.59,1111122 
COMPS,ioos:station:USF.COMPS:C13:1,2017-04-04T14:35:00Z,26.0630,-83.0730,1011.71,1111122 
COMPS,ioos:station:USF.COMPS:C13:1,2017-04-04T15:05:00Z,26.0630,-83.0730,1012.17,1111122 
COMPS,ioos:station:USF.COMPS:C13:1,2017-04-04T15:35:00Z,26.0630,-83.0730,1012.51,1111122 
COMPS,ioos:station:USF.COMPS:C13:1,2017-04-04T16:05:00Z,26.0630,-83.0730,1012.92,1111122 
COMPS,ioos:station:USF.COMPS:C13:1,2017-04-04T16:35:00Z,26.0630,-83.0730,1013.13,1111122 
COMPS,ioos:station:USF.COMPS:C13:1,2017-04-04T17:05:00Z,26.0630,-83.0730,1013.11,1111122 
COMPS,ioos:station:USF.COMPS:C13:1,2017-04-04T17:35:00Z,26.0630,-83.0730,1012.85,1111122 
COMPS,ioos:station:USF.COMPS:C13:1,2017-04-04T18:05:00Z,26.0630,-83.0730,1012.69,1111122 
COMPS,ioos:station:USF.COMPS:C13:1,2017-04-04T18:35:00Z,26.0630,-83.0730,1012.18,1111122 
COMPS,ioos:station:USF.COMPS:C13:1,2017-04-04T19:05:00Z,26.0630,-83.0730,1011.56,1111122 
COMPS,ioos:station:USF.COMPS:C13:1,2017-04-04T19:35:00Z,26.0630,-83.0730,1011.03,1111122 
COMPS,ioos:station:USF.COMPS:C13:1,2017-04-04T20:05:00Z,26.0630,-83.0730,1010.76,1111122 
COMPS,ioos:station:USF.COMPS:C13:1,2017-04-04T20:35:00Z,26.0630,-83.0730,1010.67,1111122 
COMPS,ioos:station:USF.COMPS:C13:1,2017-04-04T21:05:00Z,26.0630,-83.0730,1010.86,1111122 
COMPS,ioos:station:USF.COMPS:C13:1,2017-04-04T21:35:00Z,26.0630,-83.0730,1011.02,1111122 
COMPS,ioos:station:USF.COMPS:C13:1,2017-04-04T22:05:00Z,26.0630,-83.0730,1011.38,1111122 
COMPS,ioos:station:USF.COMPS:C13:1,2017-04-04T22:35:00Z,26.0630,-83.0730,1011.28,1111122 
COMPS,ioos:station:USF.COMPS:C13:1,2017-04-05T15:05:00Z,26.0630,-83.0730,1012.97,1111122 
COMPS,ioos:station:USF.COMPS:C13:1,2017-04-05T15:35:00Z,26.0630,-83.0730,1013.27,1111122 
COMPS,ioos:station:USF.COMPS:C13:1,2017-04-05T16:05:00Z,26.0630,-83.0730,1013.35,1111122 
COMPS,ioos:station:USF.COMPS:C13:1,2017-04-05T16:35:00Z,26.0630,-83.0730,1013.37,1111122 
COMPS,ioos:station:USF.COMPS:C13:1,2017-04-05T17:05:00Z,26.0630,-83.0730,1013.17,1111122 
COMPS,ioos:station:USF.COMPS:C13:1,2017-04-05T17:35:00Z,26.0630,-83.0730,1013.1,1111122 
COMPS,ioos:station:USF.COMPS:C13:1,2017-04-05T18:05:00Z,26.0630,-83.0730,1012.68,1111122 
COMPS,ioos:station:USF.COMPS:C13:1,2017-04-05T18:35:00Z,26.0630,-83.0730,1012.46,1111122 
COMPS,ioos:station:USF.COMPS:C13:1,2017-04-05T19:05:00Z,26.0630,-83.0730,1012.0,1111122 
COMPS,ioos:station:USF.COMPS:C13:1,2017-04-05T19:35:00Z,26.0630,-83.0730,1011.8,1111122 
COMPS,ioos:station:USF.COMPS:C13:1,2017-04-05T20:05:00Z,26.0630,-83.0730,1011.55,1111122 
COMPS,ioos:station:USF.COMPS:C13:1,2017-04-05T20:35:00Z,26.0630,-83.0730,1011.31,1111122 
COMPS,ioos:station:USF.COMPS:C13:1,2017-04-05T21:05:00Z,26.0630,-83.0730,1011.05,1111122 
COMPS,ioos:station:USF.COMPS:C13:1,2017-04-05T21:35:00Z,26.0630,-83.0730,1011.46,1111122 
COMPS,ioos:station:USF.COMPS:C13:1,2017-04-05T22:05:00Z,26.0630,-83.0730,1011.79,1111122 
COMPS,ioos:station:USF.COMPS:C13:1,2017-04-05T22:35:00Z,26.0630,-83.0730,1012.0,1111122 
COMPS,ioos:station:USF.COMPS:C13:1,2017-04-05T23:05:00Z,26.0630,-83.0730,1012.25,1111122 
COMPS,ioos:station:USF.COMPS:C13:1,2017-04-05T23:35:00Z,26.0630,-83.0730,1012.36,1111122 
COMPS,ioos:station:USF.COMPS:C13:1,2017-04-06T00:05:00Z,26.0630,-83.0730,1012.5,1111122 
COMPS,ioos:station:USF.COMPS:C13:1,2017-04-06T00:35:00Z,26.0630,-83.0730,1012.67,1111122 
COMPS,ioos:station:USF.COMPS:C13:1,2017-04-06T01:05:00Z,26.0630,-83.0730,1012.87,1111122 
COMPS,ioos:station:USF.COMPS:C13:1,2017-04-06T01:35:00Z,26.0630,-83.0730,1013.16,1111122 
COMPS,ioos:station:USF.COMPS:C13:1,2017-04-06T02:05:00Z,26.0630,-83.0730,1013.5,1111122 
COMPS,ioos:station:USF.COMPS:C13:1,2017-04-06T02:35:00Z,26.0630,-83.0730,1013.98,1111122 
COMPS,ioos:station:USF.COMPS:C13:1,2017-04-06T03:05:00Z,26.0630,-83.0730,1014.28,1111122 
COMPS,ioos:station:USF.COMPS:C13:1,2017-04-06T03:35:00Z,26.0630,-83.0730,1014.45,1111122 
COMPS,ioos:station:USF.COMPS:C13:1,2017-04-06T04:05:00Z,26.0630,-83.0730,1014.18,1111122 
COMPS,ioos:station:USF.COMPS:C13:1,2017-04-06T04:35:00Z,26.0630,-83.0730,1013.55,1111122 
COMPS,ioos:station:USF.COMPS:C13:1,2017-04-06T05:05:00Z,26.0630,-83.0730,1013.45,1111122 
COMPS,ioos:station:USF.COMPS:C13:1,2017-04-06T05:35:00Z,26.0630,-83.0730,1013.13,1111122 
COMPS,ioos:station:USF.COMPS:C13:1,2017-04-06T06:05:00Z,26.0630,-83.0730,1012.41,1111122 
COMPS,ioos:station:USF.COMPS:C13:1,2017-04-06T06:35:00Z,26.0630,-83.0730,1012.06,1111122 
COMPS,ioos:station:USF.COMPS:C13:1,2017-04-06T07:05:00Z,26.0630,-83.0730,1011.53,1111122 
COMPS,ioos:station:USF.COMPS:C13:1,2017-04-06T07:35:00Z,26.0630,-83.0730,1011.62,1111122 
COMPS,ioos:station:USF.COMPS:C13:1,2017-04-06T08:05:00Z,26.0630,-83.0730,1012.23,1111122 
COMPS,ioos:station:USF.COMPS:C13:1,2017-04-06T08:35:00Z,26.0630,-83.0730,1011.75,1111122 
COMPS,ioos:station:USF.COMPS:C13:1,2017-04-06T09:05:00Z,26.0630,-83.0730,1011.49,1111122 
COMPS,ioos:station:USF.COMPS:C13:1,2017-04-06T09:35:00Z,26.0630,-83.0730,1011.57,1111122 
COMPS,ioos:station:USF.COMPS:C13:1,2017-04-06T10:05:00Z,26.0630,-83.0730,1011.9,1111122 
COMPS,ioos:station:USF.COMPS:C13:1,2017-04-06T10:35:00Z,26.0630,-83.0730,1012.59,1111122 
COMPS,ioos:station:USF.COMPS:C13:1,2017-04-06T11:05:00Z,26.0630,-83.0730,1012.66,1111122 
COMPS,ioos:station:USF.COMPS:C13:1,2017-04-06T11:35:00Z,26.0630,-83.0730,1013.01,1111122 
COMPS,ioos:station:USF.COMPS:C13:1,2017-04-06T12:05:00Z,26.0630,-83.0730,1012.58,1111122 
COMPS,ioos:station:USF.COMPS:C13:1,2017-04-06T12:35:00Z,26.0630,-83.0730,1012.51,1111122 
COMPS,ioos:station:USF.COMPS:C13:1,2017-04-06T13:05:00Z,26.0630,-83.0730,1012.92,1111122 
COMPS,ioos:station:USF.COMPS:C13:1,2017-04-06T13:35:00Z,26.0630,-83.0730,1013.23,1111122 
COMPS,ioos:station:USF.COMPS:C13:1,2017-04-06T14:05:00Z,26.0630,-83.0730,1013.99,1111122 
COMPS,ioos:station:USF.COMPS:C13:1,2017-04-06T14:35:00Z,26.0630,-83.0730,1014.56,1111122 
COMPS,ioos:station:USF.COMPS:C13:1,2017-04-06T15:05:00Z,26.0630,-83.0730,1015.09,1111122 
COMPS,ioos:station:USF.COMPS:C13:1,2017-04-06T15:35:00Z,26.0630,-83.0730,1015.11,1111122 
COMPS,ioos:station:USF.COMPS:C13:1,2017-04-06T16:05:00Z,26.0630,-83.0730,1014.98,1111122 
COMPS,ioos:station:USF.COMPS:C13:1,2017-04-06T16:35:00Z,26.0630,-83.0730,1014.8,1111122 
COMPS,ioos:station:USF.COMPS:C13:1,2017-04-06T17:05:00Z,26.0630,-83.0730,1014.79,1111122 
COMPS,ioos:station:USF.COMPS:C13:1,2017-04-06T17:35:00Z,26.0630,-83.0730,1014.65,1111122 
COMPS,ioos:station:USF.COMPS:C13:1,2017-04-06T18:05:00Z,26.0630,-83.0730,1014.72,1111122 
COMPS,ioos:station:USF.COMPS:C13:1,2017-04-06T18:35:00Z,26.0630,-83.0730,1014.8,1111122 
COMPS,ioos:station:USF.COMPS:C13:1,2017-04-06T19:05:00Z,26.0630,-83.0730,1014.85,1111122 
COMPS,ioos:station:USF.COMPS:C13:1,2017-04-06T19:35:00Z,26.0630,-83.0730,1014.69,1111122 
COMPS,ioos:station:USF.COMPS:C13:1,2017-04-06T20:05:00Z,26.0630,-83.0730,1014.26,1111122 
COMPS,ioos:station:USF.COMPS:C13:1,2017-04-06T20:35:00Z,26.0630,-83.0730,1013.88,1111122 
COMPS,ioos:station:USF.COMPS:C13:1,2017-04-06T21:05:00Z,26.0630,-83.0730,1013.86,1111122 
COMPS,ioos:station:USF.COMPS:C13:1,2017-04-06T21:35:00Z,26.0630,-83.0730,1013.83,1111122 
COMPS,ioos:station:USF.COMPS:C13:1,2017-04-06T22:05:00Z,26.0630,-83.0730,1013.8,1111122 
COMPS,ioos:station:USF.COMPS:C13:1,2017-04-06T22:35:00Z,26.0630,-83.0730,1014.05,1111122 
COMPS,ioos:station:USF.COMPS:C13:1,2017-04-06T23:05:00Z,26.0630,-83.0730,1014.33,1111122 
COMPS,ioos:station:USF.COMPS:C13:1,2017-04-06T23:35:00Z,26.0630,-83.0730,1014.44,1111122 
COMPS,ioos:station:USF.COMPS:C13:1,2017-04-07T00:05:00Z,26.0630,-83.0730,1014.77,1111122 
COMPS,ioos:station:USF.COMPS:C13:1,2017-04-07T00:35:00Z,26.0630,-83.0730,1015.11,1111122 
COMPS,ioos:station:USF.COMPS:C13:1,2017-04-07T01:05:00Z,26.0630,-83.0730,1015.37,1111122 
COMPS,ioos:station:USF.COMPS:C13:1,2017-04-07T01:35:00Z,26.0630,-83.0730,1015.66,1111122 
COMPS,ioos:station:USF.COMPS:C13:1,2017-04-07T02:05:00Z,26.0630,-83.0730,1015.86,1111122 
COMPS,ioos:station:USF.COMPS:C13:1,2017-04-07T02:35:00Z,26.0630,-83.0730,1016.13,1111122 
COMPS,ioos:station:USF.COMPS:C13:1,2017-04-07T03:05:00Z,26.0630,-83.0730,1016.12,1111122 
COMPS,ioos:station:USF.COMPS:C13:1,2017-04-07T03:35:00Z,26.0630,-83.0730,1016.16,1111122 
COMPS,ioos:station:USF.COMPS:C13:1,2017-04-07T04:05:00Z,26.0630,-83.0730,1016.26,1111122 
COMPS,ioos:station:USF.COMPS:C13:1,2017-04-07T04:35:00Z,26.0630,-83.0730,1016.72,1111122 
COMPS,ioos:station:USF.COMPS:C13:1,2017-04-07T05:05:00Z,26.0630,-83.0730,1016.81,1111122 
COMPS,ioos:station:USF.COMPS:C13:1,2017-04-07T05:35:00Z,26.0630,-83.0730,1016.71,1111122 
COMPS,ioos:station:USF.COMPS:C13:1,2017-04-07T06:05:00Z,26.0630,-83.0730,1016.28,1111122 
COMPS,ioos:station:USF.COMPS:C13:1,2017-04-07T06:35:00Z,26.0630,-83.0730,1016.33,1111122 
COMPS,ioos:station:USF.COMPS:C13:1,2017-04-07T07:05:00Z,26.0630,-83.0730,1016.15,1111122 
COMPS,ioos:station:USF.COMPS:C13:1,2017-04-07T07:35:00Z,26.0630,-83.0730,1016.09,1111122 
COMPS,ioos:station:USF.COMPS:C13:1,2017-04-07T08:05:00Z,26.0630,-83.0730,1015.84,1111122 
COMPS,ioos:station:USF.COMPS:C13:1,2017-04-07T08:35:00Z,26.0630,-83.0730,1015.9,1111122 
COMPS,ioos:station:USF.COMPS:C13:1,2017-04-07T09:05:00Z,26.0630,-83.0730,1015.91,1111122 
COMPS,ioos:station:USF.COMPS:C13:1,2017-04-07T09:35:00Z,26.0630,-83.0730,1016.38,1111122 
COMPS,ioos:station:USF.COMPS:C13:1,2017-04-07T10:05:00Z,26.0630,-83.0730,1016.55,1111122 
COMPS,ioos:station:USF.COMPS:C13:1,2017-04-07T10:35:00Z,26.0630,-83.0730,1016.64,1111122 
COMPS,ioos:station:USF.COMPS:C13:1,2017-04-07T11:05:00Z,26.0630,-83.0730,1016.79,1111122 
COMPS,ioos:station:USF.COMPS:C13:1,2017-04-07T11:35:00Z,26.0630,-83.0730,1017.06,1111122 
COMPS,ioos:station:USF.COMPS:C13:1,2017-04-07T12:05:00Z,26.0630,-83.0730,1017.34,1111122 
COMPS,ioos:station:USF.COMPS:C13:1,2017-04-07T12:35:00Z,26.0630,-83.0730,1017.64,1111122 
COMPS,ioos:station:USF.COMPS:C13:1,2017-04-07T13:05:00Z,26.0630,-83.0730,1017.64,1111122 
COMPS,ioos:station:USF.COMPS:C13:1,2017-04-07T13:35:00Z,26.0630,-83.0730,1017.89,1111122 
COMPS,ioos:station:USF.COMPS:C13:1,2017-04-07T14:05:00Z,26.0630,-83.0730,1018.51,1111122 
COMPS,ioos:station:USF.COMPS:C13:1,2017-04-07T14:35:00Z,26.0630,-83.0730,1018.86,1111122 
COMPS,ioos:station:USF.COMPS:C13:1,2017-04-07T15:05:00Z,26.0630,-83.0730,1019.01,1111122 
COMPS,ioos:station:USF.COMPS:C13:1,2017-04-07T15:35:00Z,26.0630,-83.0730,1019.02,1111122 
COMPS,ioos:station:USF.COMPS:C13:1,2017-04-07T16:05:00Z,26.0630,-83.0730,1019.16,1111122 
COMPS,ioos:station:USF.COMPS:C13:1,2017-04-07T16:35:00Z,26.0630,-83.0730,1019.2,1111122 
COMPS,ioos:station:USF.COMPS:C13:1,2017-04-07T17:05:00Z,26.0630,-83.0730,1018.92,1111122 
COMPS,ioos:station:USF.COMPS:C13:1,2017-04-07T17:35:00Z,26.0630,-83.0730,1018.77,1111122 